Location: Santa Maria di Sala
(45.5070°N, 12.0300°E)
Time: 08:57:41
(UTC+02:00)

STRAND 1 - Pass Details

Date: 26 February 2024
Orbit: 764 x 779 km, 98.4° (Epoch: 16 April)

Event Time Altitude Azimuth Distance (km) Brightness Sun altitude
Rises 05:02:31 0° 144° (SE) 3,250 ? -20.7°
Reaches altitude 10° 05:04:55 10° 137° (SE) 2,328 ? -20.3°
Maximum altitude 05:09:43 41° 68° (ENE) 1,120 ? -19.5°
Drops below altitude 10° 05:14:32 10° 360° (N) 2,343 ? -18.7°
Sets 05:16:57 0° 353° (N) 3,274 ? -18.2°
